Probability
0 0 0 0 0 0 0 0 0 0 0 0 0 0 0 0 0 0 0 0 0 0 0 0 0 0 0 0 0 0 0 1 1 1 0 0 0 0 0 0 0 0 0
0 0 0 0 0 0 0 0 0 0 0 0 0 0 0 0 0 0 0 0 0 0 0 0 0 0 0 0 0 0 1 1 1 0 0 0 0 0 0 0 0 0 0
0 0 0 0 0 0 0 0 0 0 0 0 0 0 0 0 0 0 0 0 0 0 0 0 0 0 0 0 0 0 1 2 1 0 0 0 0 0 0 0 0 0 0
0 0 0 0 0 0 0 0 0 0 0 0 0 0 0 0 0 0 0 0 0 0 0 0 0 0 0 0 0 0 1 1 1 0 0 0 0 0 0 0 0 0 0
0 0 0 0 0 0 0 0 0 0 0 0 0 0 0 0 0 0 0 0 0 0 0 0 0 0 0 0 0 0 0 0 0 0 0 1 1 1 1 0 0 0 0
0 0 0 0 0 0 0 0 0 0 0 0 0 0 0 0 0 0 0 0 0 0 0 0 0 0 0 1 0 0 0 0 0 0 1 1 2 2 2 1 0 0 0
0 0 0 0 0 0 0 0 0 0 0 0 0 0 0 0 0 0 0 0 0 0 0 0 0 0 0 0 0 0 0 0 0 0 1 2 1 2 2 1 1 1 1
0 0 0 0 0 0 0 0 0 0 0 0 0 0 0 0 0 0 0 0 0 0 0 0 0 0 0 0 0 0 0 0 0 0 1 1 1 1 1 1 2 3 2
0 0 0 0 0 0 0 0 0 0 0 0 0 0 0 0 0 0 0 0 0 0 0 0 0 0 0 0 0 0 0 0 0 0 0 1 1 1 2 3 5 6 5
0 0 0 0 0 0 0 0 0 0 0 0 0 0 0 0 0 0 0 0 0 0 0 0 0 0 0 0 0 0 0 0 0 0 0 0 1 2 3 5 8 9 8
0 0 0 0 0 0 0 0 0 0 0 0 0 0 0 0 0 0 0 0 0 0 0 0 0 0 0 0 0 0 0 0 0 0 0 0 2 3 5 6 8 10 9
0 0 0 0 0 0 0 0 0 0 0 0 0 0 0 0 0 0 0 0 0 0 0 0 0 0 0 0 0 0 0 0 0 0 0 0 1 3 4 5 7 8 9
0 0 0 0 0 0 0 0 0 0 0 0 0 0 0 0 0 0 0 0 0 0 0 0 0 0 0 0 0 0 0 0 0 0 0 0 1 2 2 3 5 6 6
0 0 0 0 0 0 0 0 0 0 0 0 0 0 0 0 0 0 0 0 0 0 0 0 0 0 0 0 0 0 0 0 0 0 0 0 0 1 1 2 3 4 3
0 0 0 0 0 0 0 0 0 0 0 0 0 0 0 0 0 0 0 0 0 0 0 0 0 0 0 0 0 0 0 0 0 0 0 0 0 0 0 1 1 1 1
0 0 0 0 0 0 0 0 0 0 0 0 0 0 0 0 0 0 0 0 0 0 0 0 0 0 0 0 0 0 0 0 0 0 0 0 0 0 0 0 0 0 0
0 0 0 0 0 0 0 0 0 0 0 0 0 0 0 0 0 0 0 0 0 0 0 0 0 0 0 0 0 0 0 0 0 0 0 0 0 0 0 0 0 0 0
0 0 0 0 0 0 0 0 0 0 0 0 0 0 0 0 0 0 0 0 0 0 0 0 0 0 0 0 0 0 0 0 0 0 0 0 0 0 0 0 0 0 0
0 0 0 0 0 0 0 0 0 0 0 0 0 0 0 0 0 0 0 0 0 0 0 0 0 0 0 0 0 0 0 0 0 0 0 0 0 0 0 0 0 0 0
0 0 0 0 0 0 0 0 0 0 0 0 0 0 0 0 0 0 0 0 0 0 0 0 0 0 0 0 0 0 0 0 0 1 0 0 0 0 0 0 0 0 0
0 0 0 0 0 0 0 0 0 0 0 0 0 0 0 0 0 0 0 0 0 0 0 0 0 0 0 0 0 0 0 0 0 0 0 0 0 0 0 0 0 0 0
0 0 0 0 0 0 0 0 0 0 0 0 0 0 0 0 0 0 0 0 0 0 0 0 0 0 0 0 0 0 0 0 0 0 0 0 0 0 0 0 0 0 0
0 0 0 0 0 0 0 0 0 0 0 0 0 0 0 0 0 0 0 0 0 0 0 0 0 0 0 0 0 0 0 0 0 0 0 0 0 0 0 0 0 0 0
0 0 0 0 0 0 0 0 0 0 0 0 0 0 0 0 0 0 0 0 0 0 0 0 0 0 0 0 0 0 0 0 0 0 0 0 0 0 0 0 0 0 0
0 0 0 0 0 0 0 0 0 0 0 0 0 0 0 0 0 0 0 0 0 0 0 0 0 0 0 0 0 0 0 0 0 0 0 0 0 0 0 0 0 0 0
0 0 0 0 0 0 0 0 0 0 0 0 0 0 0 0 0 0 0 0 0 0 0 0 0 0 0 0 0 0 0 0 0 0 0 0 0 0 0 0 0 0 0
Wind_Speed
1 1 1 1 1 1 1 1 1 2 2 2 1 2 2 2 2 1 0 2 2 2 3 3 3 3 3 3 2 3 3 3 2 2 2 2 2 2 2 3 3 4 4
2 2 2 2 2 1 1 2 2 2 1 2 2 2 2 2 2 1 0 1 1 2 2 3 4 3 3 2 2 2 2 2 1 1 1 1 1 1 2 4 4 4 4
3 3 3 3 2 2 3 3 3 3 3 3 3 3 2 2 2 1 1 0 1 1 1 3 3 3 2 2 2 2 2 1 1 0 1 0 1 2 2 4 5 5 5
4 3 3 2 2 3 3 3 3 3 3 3 2 2 2 2 2 1 1 1 1 1 1 1 2 2 2 1 1 1 1 1 1 1 1 2 2 2 3 4 5 6 6
4 3 3 2 3 3 3 3 3 2 2 2 2 2 3 2 2 2 1 1 1 1 1 1 1 1 1 1 0 0 1 1 2 2 2 3 3 3 4 5 5 5 6
4 4 3 3 3 3 3 3 3 3 2 2 3 3 3 3 2 2 2 2 1 1 2 2 1 2 2 1 1 1 2 2 3 3 3 4 4 4 5 5 5 5 5
4 4 3 3 3 3 3 3 2 3 3 2 3 3 4 4 4 3 3 2 3 2 2 2 1 1 1 2 2 2 3 3 3 4 4 5 5 5 5 5 5 6 6
3 3 4 3 3 3 4 4 3 2 2 3 2 3 3 5 4 4 3 3 3 2 3 2 1 1 1 1 2 2 3 4 4 5 5 6 5 4 4 4 4 5 5
4 3 3 3 3 3 2 3 3 3 2 3 2 3 3 0 2 4 4 4 4 3 3 2 2 2 2 1 2 3 3 4 5 5 6 6 4 3 3 3 3 4 5
4 4 3 3 3 3 2 2 3 2 3 2 2 2 2 3 2 1 3 3 4 3 3 3 3 3 2 2 2 3 4 4 5 5 6 6 4 3 2 2 2 3 4
3 4 4 3 3 2 3 3 3 3 2 2 1 1 2 2 2 2 1 3 3 3 3 3 3 3 3 3 2 3 4 5 5 7 7 7 5 5 4 2 2 2 3
2 3 3 3 3 3 3 3 3 4 3 3 3 2 2 2 1 2 1 1 2 3 3 3 3 3 3 3 4 5 5 6 7 8 8 7 7 6 5 3 2 2 1
1 1 2 2 2 2 3 3 4 4 4 4 3 2 2 1 1 2 2 1 1 2 3 3 3 3 4 3 3 6 6 7 8 9 9 8 8 8 7 5 4 4 3
1 1 2 3 3 3 4 4 4 3 4 4 5 3 3 2 2 2 2 2 2 2 3 3 3 4 4 3 5 6 4 7 7 8 9 9 9 9 9 7 7 6 5
2 3 3 4 4 4 4 4 4 3 4 4 4 4 3 2 2 2 2 2 3 1 2 3 3 4 4 3 5 4 4 6 7 7 8 9 9 9 9 9 9 8 7
3 4 4 4 4 4 4 5 4 4 5 4 3 4 4 3 3 3 2 2 2 2 1 2 2 3 4 5 7 5 5 7 7 7 7 8 8 8 9 9 8 8 8
4 4 4 4 4 4 4 5 4 4 5 4 4 5 4 4 3 3 3 3 2 2 2 2 2 3 4 5 6 5 4 4 4 7 7 7 7 7 8 8 7 7 7
4 4 4 4 4 4 4 4 4 4 5 4 4 4 4 4 4 3 3 3 2 2 2 1 2 3 3 4 5 5 5 5 4 7 8 7 7 7 7 7 7 6 6
5 4 5 5 4 3 4 4 4 4 4 3 3 4 3 4 4 3 3 3 3 3 2 2 2 2 2 4 4 5 5 4 5 6 8 8 8 7 7 7 6 6 6
5 5 4 4 3 3 4 4 5 4 4 3 3 3 3 3 3 2 3 3 3 3 3 2 2 2 2 3 3 4 5 4 4 5 6 6 7 9 8 8 7 7 7
5 4 4 4 3 3 3 4 4 5 4 4 4 3 3 4 5 4 3 2 3 2 2 2 2 2 3 3 3 3 3 4 3 3 4 4 4 4 5 7 7 8 8
4 5 4 4 4 3 6 7 6 4 4 4 3 3 3 4 6 7 7 5 4 3 2 1 1 1 3 2 2 2 2 3 4 4 3 4 3 3 4 3 6 9 9
5 5 4 4 4 3 7 8 8 5 4 3 3 2 3 4 4 3 5 7 6 5 3 2 1 1 2 2 2 3 2 2 3 4 2 3 3 3 4 4 8 8 9
4 4 4 3 3 3 6 7 8 5 4 3 2 2 2 2 2 2 3 4 3 3 2 1 1 2 2 2 1 1 2 2 3 3 1 2 3 3 4 4 7 8 9
4 3 3 4 3 2 5 7 8 4 3 2 1 1 1 1 3 4 3 2 3 3 4 4 4 4 5 5 3 2 2 2 3 4 2 1 3 4 4 4 5 7 9
4 4 3 3 3 2 4 6 7 3 3 1 1 1 2 2 3 3 2 1 2 3 4 5 5 6 5 5 6 1 1 1 2 3 3 1 3 3 4 3 3 4 5
Wind_Direction
82 63 25 35 25 36 51 43 49 43 33 31 50 85 102 122 123 120 86 125 126 124 114 112 109 108 110 110 100 100 109 114 107 105 116 125 141 185 196 192 188 185 189
83 70 56 46 32 38 53 64 62 59 39 39 43 62 96 111 99 113 101 73 90 99 120 128 116 111 105 97 98 90 94 93 110 112 108 128 151 207 212 209 204 200 203
80 78 65 48 29 41 56 54 45 48 47 42 36 34 56 76 88 97 105 46 21 54 122 143 129 121 105 89 77 74 68 76 62 359 286 270 231 223 224 225 220 215 215
81 76 65 48 38 50 55 61 46 46 38 36 30 22 34 44 58 88 75 45 21 15 26 119 141 129 120 100 82 73 25 26 358 323 308 289 267 242 230 233 234 229 225
69 75 65 49 52 54 45 53 48 51 43 29 35 37 28 34 32 56 54 40 35 47 35 42 79 84 91 99 142 248 323 313 307 303 298 290 272 258 244 237 237 233 228
69 74 65 49 54 58 42 44 50 37 45 37 49 43 24 19 31 43 44 38 36 49 61 60 45 33 39 37 332 311 307 299 299 300 298 295 282 265 253 241 238 237 234
67 74 70 57 55 61 52 49 55 42 26 33 57 28 9 19 30 23 21 31 30 31 60 62 46 9 1 12 345 331 322 319 313 311 306 303 295 275 262 249 243 241 237
61 74 79 72 65 65 51 47 58 55 24 30 85 72 22 3 3 10 10 25 20 21 36 43 41 18 359 360 345 339 333 330 321 318 319 313 299 282 267 257 249 243 241
64 67 76 77 70 74 69 58 66 77 51 17 54 118 114 136 334 349 8 19 15 22 16 13 23 23 28 11 342 343 340 333 338 334 327 322 311 298 282 263 255 245 239
63 64 70 72 69 65 64 56 69 78 87 44 17 42 115 150 126 6 346 354 7 21 11 17 17 18 21 9 358 349 346 340 340 342 336 330 328 328 313 292 281 260 241
50 62 70 73 69 63 62 56 60 63 75 83 56 47 58 57 78 115 21 340 357 360 4 11 15 10 6 7 358 1 357 354 352 350 339 336 338 343 337 322 306 278 253
32 47 66 70 70 67 65 63 68 68 68 72 61 57 76 86 84 105 118 344 350 335 356 14 16 6 4 7 7 11 6 9 7 3 359 358 1 6 4 3 2 332 281
57 47 63 70 71 75 71 70 71 64 63 69 62 55 55 58 106 119 114 94 19 334 352 2 0 2 7 6 360 4 8 12 12 9 13 17 17 13 17 25 29 24 29
150 110 88 81 75 73 72 71 70 67 66 65 60 58 56 35 51 84 124 124 64 7 5 344 340 357 356 358 359 0 6 11 11 12 14 18 18 14 19 23 30 29 33
119 103 94 86 75 71 70 75 70 63 69 64 60 59 55 34 43 48 69 110 128 96 348 331 341 339 347 1 1 2 358 2 11 17 18 19 20 19 22 27 31 33 33
107 104 92 85 78 70 69 73 70 65 72 60 59 61 48 32 37 38 51 54 88 131 131 312 322 326 345 4 6 2 360 6 10 12 15 18 19 21 21 23 30 35 36
112 109 104 95 86 75 72 76 72 73 75 62 53 62 49 40 45 35 38 46 50 88 114 317 326 340 3 3 355 353 0 3 357 3 8 13 17 17 16 18 22 29 32
112 113 107 101 92 82 78 82 81 77 78 71 59 59 43 46 45 37 43 44 42 54 106 29 341 349 357 353 353 356 2 5 353 6 9 8 9 12 13 15 18 19 18
110 105 103 104 99 92 83 83 90 87 82 77 71 70 52 58 52 42 50 47 37 43 54 78 354 345 344 352 356 353 358 353 356 5 7 7 5 4 6 5 5 5 2
113 111 105 106 107 100 94 91 91 88 80 68 65 68 62 71 77 69 60 50 50 48 43 48 18 352 345 339 360 356 352 347 344 357 3 3 2 3 360 357 354 354 349
115 116 107 95 95 100 108 108 101 96 86 67 50 47 51 61 67 72 75 71 68 59 46 41 18 2 349 352 350 336 339 326 330 351 350 353 355 355 352 351 351 348 343
110 107 106 104 93 95 112 112 111 100 91 82 61 39 42 46 50 53 58 65 77 88 82 63 23 355 320 315 320 337 338 351 334 334 350 334 352 342 335 346 352 354 352
118 113 114 109 103 107 111 107 106 104 98 92 84 61 47 42 44 45 44 44 44 54 78 127 131 277 290 300 329 339 333 314 285 300 341 321 330 324 318 335 342 346 348
133 130 129 122 111 111 113 109 107 95 92 90 98 99 80 26 31 51 51 39 27 20 22 54 196 262 275 275 259 281 277 299 297 309 356 313 314 305 311 314 329 340 340
136 134 136 128 119 118 117 115 109 97 89 66 59 79 81 53 30 50 65 45 12 349 359 7 349 336 334 337 344 3 355 3 326 310 324 305 305 306 302 301 319 330 327
140 136 125 127 130 135 129 125 119 113 102 75 31 16 26 29 23 43 80 77 12 328 341 348 350 348 346 345 349 334 269 298 300 301 302 314 309 328 317 297 302 313 314